Regional Weather Roundup
Issued by NWS

Home | Current Version | Previous Version | Text Only | Print | Product List | Glossary On
Versions: 1 2 3 4 5 6 7 8 9 10 11 12 13 14 15 16 17 18 19 20 21 22 23 24 25 26 27 28 29 30 31 32 33 34 35 36 37 38 39 40 41 42 43 44 45 46 47 48 49 50
000
ASUS44 KFWD 141915
RWRTX
NORTH TEXAS HOURLY WEATHER ROUNDUP
NATIONAL WEATHER SERVICE FORT WORTH TX
100 PM CST SUN FEB 14 2016

NOTE: "FAIR" INDICATES FEW OR NO CLOUDS BELOW 12,000 FEET WITH NO
SIGNIFICANT WEATHER AND/OR OBSTRUCTIONS TO VISIBILITY.

TXZ118-119-142000-
DALLAS/FORT WORTH METROPLEX

CITY           SKY/WX    TMP DP  RH WIND       PRES   REMARKS
DFW AIRPORT    CLOUDY    65  52  62 S15       29.90F
DALLAS LOVE    CLOUDY    64  52  64 S8        29.91F
FTW MEACHAM    CLOUDY    66  53  63 S10       29.90F
DAL-EXECUTIVE  CLOUDY    65  52  62 VRB6      29.91F
FTW-ALLIANCE   CLOUDY    64  52  64 S9        29.90F
FTW-NAS-JRB    CLOUDY    66  51  58 SW9       29.90F
FTW-SPINKS     CLOUDY    66  52  59 S9        29.91F
ARLINGTON      CLOUDY    67  53  61 S10       29.91F
GRAND PRAIRIE  PTSUNNY   64  52  63 S8        29.93F
ADDISON        CLOUDY    64  54  68 S7G20     29.91F
MESQUITE       CLOUDY    64  54  68 S12       29.94F
LANCASTER      CLOUDY    64  52  64 S13       29.94F
$$

TXZ091>094-102>105-117-120-121-131>134-142000-
NORTH CENTRAL TEXAS

CITY           SKY/WX    TMP DP  RH WIND       PRES   REMARKS
SHRMAN/DENISON CLOUDY    66  53  62 S16G22    29.91F
GAINESVILLE    CLOUDY    62  52  70 S8        29.92F
BOWIE          CLOUDY    64  50  59 SW5       29.89F
BRIDGEPORT     CLOUDY    65  53  63 SW9       29.91F
DECATUR        CLOUDY    64  49  59 S12       29.90F
DENTON         CLOUDY    64  53  67 S17       29.90F
MCKINNEY       CLOUDY    64  52  64 S17       29.91F
GREENVILLE     CLOUDY    63  52  67 S10       29.94F
ROCKWALL       CLOUDY    64  55  72 S15G21    29.92F
TERRELL        CLOUDY    64  54  69 S14       29.93F
WAXAHACHIE     CLOUDY    65  55  71 S13       29.93F
CLEBURNE       HAZE      66  55  68 SW13      29.91F VSB 1
GRANBURY       CLOUDY    68  52  56 SW9       29.91F
$$

TXZ083>090-098>101-113>116-127>130-139>142-154-155-142000-
WESTERN NORTH TEXAS

CITY           SKY/WX    TMP DP  RH WIND       PRES   REMARKS
WICHITA FALLS  CLOUDY    59  46  62 N22       29.89F
WF-KICKAPOO    MOSUNNY   62  48  60 N15G25    29.90F
VERNON         CLOUDY    53  34  49 N16G23    29.96F
ABILENE        CLOUDY    58  41  53 NW14      29.94S
ABILENE-DYESS  CLOUDY    57  40  53 N13       29.94S
BRECKENRIDGE   PTSUNNY   60  41  48 NW12G20   29.92F
GRAHAM         MOSUNNY   57  45  62 NW9       29.91F
MINERAL WELLS  CLOUDY    64  49  57 SW13      29.88F
STEPHENVILLE   CLOUDY    66  50  56 SW13      29.93F
COMANCHE       CLOUDY    67  53  59 W10       29.91F
BROWNWOOD      CLOUDY    68  50  52 SW12      29.91F
COLEMAN        CLOUDY    66  50  57 W8        29.92F
$$

TXZ143>147-156>162-174-175-142000-
CENTRAL TEXAS

CITY           SKY/WX    TMP DP  RH WIND       PRES   REMARKS
WACO           CLOUDY    67  55  65 S16       29.93F
WACO-TSTC      PTSUNNY   68  55  64 S15       29.93F
WACO-MCGREGOR  CLOUDY    67  56  67 S13G18    29.94F
HILLSBORO      CLOUDY    66  53  62 S20G25    29.91F
CORSICANA      CLOUDY    69  55  60 S14       29.94F
MEXIA          CLOUDY    66  54  65 S15G26    29.94F
HEARNE         CLOUDY    71  55  58 S14       29.96F
CAMERON        CLOUDY    70  56  62 S13G20    29.94F
TEMPLE         CLOUDY    66  55  67 S13G21    29.95F
KILLEEN        CLOUDY    66  54  65 SW12G20   29.93F
KILLEEN-SKYLRK CLOUDY    67  55  65 SW13G22   29.95F
FORT HOOD      CLOUDY    66  54  63 S15       29.92F
GATESVILLE     CLOUDY    68  54  60 SW14      29.94F
HAMILTON       CLOUDY    69  54  58 S15G22    29.92F
LAMPASAS       MOSUNNY   71  58  63 S8        29.92F
$$

TXZ095>097-106>112-122>126-135>138-148>153-164>167-142000-
EAST TEXAS

CITY           SKY/WX    TMP DP  RH WIND       PRES   REMARKS
PARIS          CLOUDY    57  45  62 S10       29.94F
SULPHUR SPRNGS CLOUDY    57  50  76 CALM      29.96F
MOUNT PLEASANT CLOUDY    60  48  64 SE6       29.97F
GILMER         CLOUDY    64  53  68 S12       29.96F
MINEOLA        CLOUDY    64  54  68 S8        29.96F
TYLER          CLOUDY    67  53  61 S14       29.95F
LONGVIEW       CLOUDY    66  53  63 S10       29.96F
MARSHALL       CLOUDY    60  52  75 SE6       30.00F
ATHENS         CLOUDY    68  52  56 SW9G21    29.93F
PALESTINE      CLOUDY    68  54  60 S12       29.98F
JACKSONVILLE   CLOUDY    68  52  57 SW12G20   29.99F
HENDERSON      CLOUDY    67  53  61 SW8       29.98F
CENTER         CLOUDY    66  57  73 SE8       29.99F
NACOGDOCHES    PTSUNNY   70  52  52 SW18G26   29.97F
LUFKIN         CLOUDY    72  52  49 SW17G26   29.98F
$$

SUPPLEMENTAL OBSERVATIONS (CENTRAL)

CITY           SKY/WX    TMP DP  RH WIND       PRES   REMARKS
LAKE TEXOMA      N/A     64  52  63 SW15        N/A
CADDO GRASSLND   N/A     63  52  67 S10         N/A
PAT MAYSE LAKE   N/A     55  48  76 SE8         N/A
GREENVILLE       N/A     63  54  72 S10         N/A
CEDAR HILL       N/A     66  54  63 S7          N/A
LAKE LIMESTONE   N/A     70  54  56 SW15G22     N/A
MCGREGOR         N/A     66  54  63 S10         N/A
TEMPLE           N/A     70  55  60 S9G25       N/A
$$

SUPPLEMENTAL OBSERVATIONS (WEST)

CITY           SKY/WX    TMP DP  RH WIND       PRES   REMARKS
MILLERS CREEK    N/A     57  41  54 N15         N/A
POSSUM KINGDOM   N/A     61  43  51 NW10        N/A
LBJ GRASSLAND    N/A     64  50  59 SW9         N/A
GRANBURY         N/A     66  50  55 SW9G17      N/A
COMANCHE         N/A     66  50  55 SW10G20     N/A
HAMBY            N/A     57  39  51 N9          N/A
IVIE RESERVOIR   N/A     70  48  46 W10         N/A
COLORADO BEND    N/A     70  52  52 W13         N/A
$$

SUPPLEMENTAL OBSERVATIONS (EAST)

CITY           SKY/WX    TMP DP  RH WIND       PRES   REMARKS
CLARKSVILLE      N/A     55  45  67 S7          N/A
GILMER           N/A     64  52  63 SW9         N/A
HENDERSON        N/A     68  52  56 SW18G25     N/A
LUFKIN           N/A     72  52  49 MISG        N/A
N SABINE NF      N/A     64  54  68 MISG        N/A
S SABINE NF      N/A     66  54  63 SE6         N/A
$$

SUPPLEMENTAL OBSERVATIONS ARE A COLLECTION OF AUTOMATED INSTRUMENTS
THAT ARE MAINTAINED BY A VARIETY OF FEDERAL AND STATE AGENCIES.
CERTAIN ELEMENTS...SUCH AS HUMIDITY VALUES AND SUSTAINED WIND
SPEEDS...MAY BE APPROXIMATED.




USA.gov is the U.S. government's official web portal to all federal, state and local government web resources and services.